Location: Sewell
(39.7660°N, 75.1450°W)
Time: 18:38:32
(UTC-05:00)

ISS - Visible Passes

Search period start: 22 November 2014 00:00
Search period end: 02 December 2014 00:00
Orbit: 408 x 417 km, 51.6° (Epoch: 22 November)

Date Brightness Start Highest point End Pass type
(mag) Time Alt. Az. Time Alt. Az. Time Alt. Az.
22 Nov -1.4 06:07:46 10° NNW 06:10:24 21° NNE 06:13:02 10° ENE visible
23 Nov -1.1 05:19:38 15° N 05:20:31 16° NNE 05:22:41 10° ENE visible
24 Nov -0.2 04:32:00 11° NE 04:32:00 11° NE 04:32:11 10° NE visible
24 Nov -2.4 06:04:49 11° NW 06:07:52 42° NNE 06:11:01 10° ESE visible
25 Nov -1.7 05:17:10 24° N 05:17:58 27° NNE 05:20:51 10° E visible
26 Nov -0.3 04:29:32 15° ENE 04:29:32 15° ENE 04:30:27 10° ENE visible
26 Nov -3.3 06:02:21 16° WNW 06:04:55 73° SW 06:08:12 10° SE visible
27 Nov -3.1 05:14:43 56° N 05:15:03 60° NE 05:18:18 10° ESE visible
28 Nov -0.4 04:27:06 17° E 04:27:06 17° E 04:28:07 10° E visible
28 Nov -1.9 05:59:56 17° W 06:01:35 25° SW 06:04:21 10° S visible
29 Nov -2.5 05:12:20 40° S 05:12:20 40° S 05:14:54 10° SSE visible
30 Nov 0.0 04:24:47 12° SE 04:24:47 12° SE 04:25:02 10° SE visible
01 Dec -0.5 05:10:04 11° S 05:10:04 11° S 05:10:14 10° S visible
